Regional Weather Roundup
Issued by NWS Goodland, KS

Home | Current Version | Previous Version | Graphics & Text | Print | Product List | Glossary On
Versions: 1 2 3 4 5 6 7 8 9 10 11 12 13 14 15 16 17 18 19 20 21 22 23 24 25 26 27 28 29 30 31 32 33 34 35 36 37 38 39 40 41 42 43 44 45 46 47 48 49 50
000
ASUS43 KGLD 290059
RWRGLD

GOODLAND FORECAST AREA HOURLY WEATHER ROUNDUP
NATIONAL WEATHER SERVICE GOODLAND KS
700 PM MDT MON JUL 28 2014

...OFFICIAL OBSERVATIONS...

CITY           SKY/WX    TMP DP  RH WIND       PRES   REMARKS
GOODLAND KS    PTSUNNY   78  52  40 S14       30.24S
HILL CITY KS   CLEAR     87  56  34 SE9       30.16S
IMPERIAL NEB   PTSUNNY   85  55  35 SE8       30.19S
MCCOOK NEB     PTCLDY    79  59  50 E14       30.18R
AKRON CO       CLOUDY    81  52  36 S17G26    30.24R
BURLINGTON CO  PTSUNNY   77  54  44 S8        30.26S
LIMON CO       CLOUDY    74  54  49 S14       30.30F
$$

...UNOFFICIAL OBSERVATIONS...

CITY           SKY/WX    TMP DP  RH WIND       PRES   REMARKS
COLBY KS       SUNNY     82  57  42 S8        30.22R
NORTON KS      CLEAR     82  48  30 NE13      30.17S
KIT CARSON CO    N/A     78  58  50 N14         N/A
YUMA CO          N/A     80  51  36 CALM        N/A
$$


USA.gov is the U.S. government's official web portal to all federal, state and local government web resources and services.